Weather History for KNKX - February, 2013

Change the Weather History Date:

Sunday, February 3, 2013

  Actual Average Record
Temperature  
Mean Temperature 61 °F -  
Max Temperature 72 °F 64 °F 82 °F (2001)
Min Temperature 48 °F 44 °F 37 °F (1999)
Degree Days  
Heating Degree Days 4    
Growing Degree Days 11 (Base 50)    
Moisture  
Dew Point 47 °F    
Average Humidity 63    
Maximum Humidity 83    
Minimum Humidity 38    
Precipitation  
Precipitation 0.11 in - - ()
Sea Level Pressure  
Sea Level Pressure 30.05 in    
Wind  
Wind Speed 4 mph (North)    
Max Wind Speed 12 mph    
Max Gust Speed -    
Visibility 10 miles    
Events Rain    
Averages and records for this station are not official NWS values.
T = Trace of Precipitation, MM = Missing Value Source: NWS Daily Summary

Daily Weather History Graph

Daily Weather History Graph

Search for Another Location

Airport or City:

Trip Planner

Search our weather history database for the weather conditions in past years. The results will help you decide how hot, cold, wet, or windy it might be!

Date:

Astronomy

Feb. 03, 2013 Rise Set
Actual Time 6:41 AM PST 5:23 PM PST
Civil Twilight 6:16 AM PST 5:49 PM PST
Nautical Twilight 5:46 AM PST 6:18 PM PST
Astronomical Twilight 5:17 AM PST 6:47 PM PST
Moon 12:13 AM PST (2/3) 11:06 AM PST (2/3)
Length of Visible Light 11h 32m
Length of Day
10h 41m
Waning Gibbous, 47% of the Moon is Illuminated
Feb 3
Waning Gibbous
Feb 9
New
Feb 17
First Quarter
Feb 25
Full
Mar 4
Last Quarter

Hourly Weather History & Observations

Time (PST) Temp. Dew Point Humidity Pressure Visibility Wind Dir Wind Speed Gust Speed Precip Events Conditions
12:55 AM 59.0 °F 52.0 °F 78% 30.08 in 10.0 mi Calm Calm - 0.00 in Rain Light Rain
1:55 AM 59.0 °F 52.0 °F 78% 30.08 in 10.0 mi Calm Calm - 0.00 in   Overcast
2:55 AM 57.9 °F 52.0 °F 81% 30.07 in 10.0 mi North 6.9 mph - 0.00 in Rain Light Rain
3:55 AM 61.0 °F 50.0 °F 67% 30.07 in 10.0 mi NNE 4.6 mph - 0.00 in   Overcast
4:55 AM 63.0 °F 48.9 °F 60% 30.08 in 10.0 mi NE 8.1 mph - N/A   Overcast
5:55 AM 61.0 °F 48.0 °F 62% 30.06 in 10.0 mi ENE 6.9 mph - 0.11 in   Overcast
6:55 AM 61.0 °F 48.0 °F 62% 30.06 in 10.0 mi East 6.9 mph - N/A   Overcast
7:55 AM 61.0 °F 48.0 °F 62% 30.06 in 10.0 mi East 6.9 mph - N/A   Mostly Cloudy
8:55 AM 64.0 °F 48.9 °F 58% 30.06 in 10.0 mi West 4.6 mph - N/A   Mostly Cloudy
9:55 AM 68.0 °F 46.9 °F 47% 30.09 in 10.0 mi Variable 3.5 mph - N/A   Mostly Cloudy
10:55 AM 72.0 °F 45.0 °F 38% 30.08 in 10.0 mi West 3.5 mph - N/A   Mostly Cloudy
11:55 AM 72.0 °F 45.0 °F 38% 30.06 in 10.0 mi West 9.2 mph - N/A   Mostly Cloudy
12:55 PM 71.1 °F 46.9 °F 42% 30.04 in 10.0 mi WNW 11.5 mph - N/A   Mostly Cloudy
1:55 PM 69.1 °F 48.9 °F 49% 30.04 in 10.0 mi WNW 8.1 mph - N/A   Mostly Cloudy
2:55 PM 66.9 °F 46.0 °F 47% 30.03 in 10.0 mi WNW 11.5 mph - N/A   Mostly Cloudy
3:55 PM 66.0 °F 46.0 °F 48% 30.01 in 10.0 mi WNW 5.8 mph - N/A   Mostly Cloudy
4:55 PM 63.0 °F 46.0 °F 54% 30.02 in 10.0 mi Calm Calm - N/A   Mostly Cloudy
5:55 PM 57.0 °F 46.9 °F 69% 30.02 in 10.0 mi Calm Calm - N/A   Mostly Cloudy
6:55 PM 57.9 °F 46.9 °F 67% 30.04 in 10.0 mi NW 3.5 mph - N/A   Mostly Cloudy
7:55 PM 54.0 °F 46.0 °F 75% 30.04 in 10.0 mi NE 3.5 mph - N/A   Mostly Cloudy
8:55 PM 53.1 °F 46.0 °F 77% 30.05 in 10.0 mi Calm Calm - N/A   Mostly Cloudy
9:55 PM 51.1 °F 45.0 °F 80% 30.06 in 10.0 mi Calm Calm - N/A   Mostly Cloudy
10:55 PM 50.0 °F 44.1 °F 80% 30.06 in 10.0 mi NE 3.5 mph - N/A   Mostly Cloudy
11:55 PM 48.0 °F 43.0 °F 83% 30.04 in 10.0 mi ENE 5.8 mph - N/A   Scattered Clouds